Other Public Products
Issued by NWS Grand Forks, ND

Home | Current Version | Previous Version | Text Only | Print | Product List | Glossary Off
Versions: 1 2 3 4 5 6 7 8 9 10 11 12 13 14 15 16 17 18 19 20 21 22 23 24 25 26 27 28 29 30 31 32 33 34 35 36 37 38 39 40 41 42 43 44 45 46 47 48 49 50

000
FPUS83 KFGF 291110
OPUFGF
PRAIRIE TO PINES WEATHER ROUNDUP
NATIONAL WEATHER SERVICE EASTERN NORTH DAKOTA/GRAND FORKS ND
600 AM CDT WED JUL 29 2015

 **SATELLITE DATA USED TO AUGMENT SKY COVER AT AUTOMATED STATIONS**
 *****  WEATHER ACROSS EASTERN NORTH DAKOTA  *****

CITY           SKY/WX    TMP DP  RH WIND       PRES   REMARKS
GRAND FORKS    CLOUDY    65  54  67 W24G37    29.61R
GRAND FORKS AF CLOUDY    65  54  67 W26G33    29.63R
GRAND CITY NWS   N/A     63 N/A N/A W21         N/A
BUXTON         NOT AVBL
DEVILS LAKE    CLOUDY    63  48  59 W29G40    29.70R
FARGO          CLOUDY    65  51  60 SW23G32   29.75R
WAHPETON ARPT  SUNNY     63  46  55 W24       29.83F
$$

 *****  WEATHER ACROSS CENTRAL AND WESTERN NORTH DAKOTA  *****

CITY           SKY/WX    TMP DP  RH WIND       PRES   REMARKS
JAMESTOWN      CLEAR     62  49  62 W22G31    29.84R
BISMARCK       PTCLDY    61  47  59 W16       29.95R
MINOT          PTCLDY    61  50  67 W20G28    29.83R
MINOT AFB      PTCLDY    61  56  83 W15       29.81R
GARRISON         N/A     58  52  80 W14       29.90R
WILLISTON      MOCLDY    58  49  72 W17       29.96R
DICKINSON      PTCLDY    53  44  71 W13       30.02R
HETTINGER      CLEAR     51  41  68 W10       30.10R
$$

 *****  OTHER OBSERVATIONS NORTHEAST NORTH DAKOTA  *****

CITY           SKY/WX    TMP DP  RH WIND       PRES   REMARKS
WALHALLA       FAIR      63  59  88 MISG      29.55R
LANGDON        CLOUDY    59  55  88 W24G37    29.61R
CAVALIER       PTSUNNY   63  55  77 W20G33    29.55R
GRAFTON        CLOUDY    64  57  77 W25G33    29.59R
CANDO          NOT AVBL
FORT TOTTEN    NOT AVBL
ROLLA          CLOUDY    59  55  88 W23G36    29.68R
RUGBY          NOT AVBL
 ***** THE ABOVE OBSERVATIONS ARE NON NWS ARE NOT QUALITY
        CONTROLLED AND MAY MIS-REPORT RAIN FOR SNOW...
$$

 *****  OTHER OBSERVATIONS SOUTHEAST NORTH DAKOTA *****

CITY           SKY/WX    TMP DP  RH WIND       PRES   REMARKS
COOPERSTOWN    NOT AVBL
VALLEY CITY    NOT AVBL
OAKES            N/A     59  50  72 SW18G24   29.90R
GWINNER        FAIR      61  48  63 SW16G25   29.88R
SHEYENNE NWR     N/A     62  50  63 W15       29.95S
BUFFALO        NOT AVBL
WYNDMERE         N/A     64  50  59 W17         N/A
 ***** THE ABOVE OBSERVATIONS ARE NON NWS ARE NOT QUALITY
       CONTROLLED AND MAY MIS-REPORT RAIN FOR SNOW...
$$

  *****  WEATHER ACROSS NORTHERN MINNESOTA  *****

CITY           SKY/WX    TMP DP  RH WIND       PRES   REMARKS
FLAG ISLAND    CLOUDY    63  59  88 SW23G31   29.41R
WARROAD        CLOUDY    63  57  82 SW17G29   29.48R
ROSEAU         CLOUDY    63  55  77 SW18G29   29.49R
HALLOCK        CLOUDY    63  57  82 W25       29.53R
THF RVR FALLS  CLOUDY    63  54  72 W21G29    29.61R
HALSTAD        NOT AVBL
FOSSTON        CLOUDY    61  52  72 W22G32    29.67S
BAUDETTE       CLOUDY    60  56  86 SW17G33   29.51R
WASKISH        CLOUDY    63  57  82 SW28G39   29.58R
CROOKSTON      CLOUDY    64  55  72 W25G32    29.64R
$$
  *****  WEATHER ACROSS CENTRAL AND WEST MINNESOTA  *****

CITY           SKY/WX    TMP DP  RH WIND       PRES   REMARKS
BEMIDJI        CLOUDY    62  53  71 W28G39    29.67R
PARK RAPIDS    CLOUDY    65  49  56 W21G33    29.73S
WADENA         PTCLDY    63  50  63 SW18G26   29.79S
DETROIT LAKES  MOCLDY    63  50  63 W22G32    29.77S
MOORHEAD       MOCLDY    64  52  63 W20G25    29.77S
FERGUS FALLS   CLEAR     63  50  63 W21G29    29.83S
ELBOW LAKE     FAIR      62  49  61 W15G23    29.86S
MORRIS MN      CLEAR     63  52  67 SW14      29.90R
STAPLES        MOCLDY    63  48  59 SW18G25   29.80S
WHEATON        CLEAR     63  48  59 SW15G21   29.91R
$$
  *****  WEATHER ELSEWHERE ACROSS MINNESOTA  *****

CITY           SKY/WX    TMP DP  RH WIND       PRES   REMARKS
DULUTH         CLEAR     64  47  53 W22G29    29.72S
INTRNTL FALLS  LGT RAIN  63  53  70 SW14G25   29.53S
ELY            CLOUDY    63  46  55 SW13G22   29.64S
CLOQUET        NOT AVBL
BRAINERD       CLOUDY    65  49  56 W23G36    29.79R
HIBBING        CLOUDY    64  48  56 SW9G21    29.68R
ALEXANDRIA     CLEAR     63  49  60 W20G29    29.88R
SAINT CLOUD    CLEAR     66  49  54 SW18G26   29.87R
MINNEAPOLIS    PTCLDY    66  52  60 W12       29.93R
$$

  *****  WEATHER ACROSS SOUTH DAKOTA  *****

CITY           SKY/WX    TMP DP  RH WIND       PRES   REMARKS
SIOUX FALLS    CLEAR     60  51  72 SW3       30.09R
BROOKINGS      CLEAR     57  46  67 SW10      30.06S
WATERTOWN      CLEAR     60  47  61 W10       29.99S
HURON          CLEAR     59  48  67 SW10      30.05R
SISSETON         N/A     65  48  54 W17G29    29.90R
ABERDEEN       CLEAR     57  49  74 SW13      29.98R
MITCHELL       CLEAR     61  50  67 W10       30.09R
PIERRE         CLEAR     61  44  53 W17       30.09S
MOBRIDGE       CLEAR     63  45  51 W10G20    30.01R
RAPID CITY     CLEAR     52  40  63 W5        30.22S
$$

  *****  SOME WEATHER IN NEARBY STATES *****

CITY           SKY/WX    TMP DP  RH WIND       PRES   REMARKS
GLASGOW MT     PTCLDY    54  47  77 W6        30.06R
GREAT FALLS MT CLEAR     51  40  65 SW10      30.20S
CHEYENNE WY    CLEAR     48  33  56 W8        30.36R
SCOTTSBLUFF NE CLEAR     51  45  79 MISG      30.29S
OMAHA NE       PTCLDY    64  62  93 N6        30.12R
DES MOINES IA  CLOUDY    73  69  87 W3        30.08R
DAVENPORT IA   CLOUDY    72  70  93 W7        30.01R
CHICAGO IL     CLOUDY    75  70  84 W9        29.93R
EAU CLAIRE WI  PTCLDY    64  56  75 SW8       29.91S
LA CROSSE WI   MOCLDY    70  56  61 W12       29.97R
$$

  *****  SOME NATIONAL WEATHER *****

CITY           SKY/WX    TMP DP  RH WIND       PRES   REMARKS
LA GUARDIA NY  PTSUNNY   79  67  66 NW5       29.97R
RALEIGH NC     CLOUDY    75  70  84 SE3       30.01S
ATLANTA GA     PTCLDY    76  71  85 NW3       29.99R
NEW ORLEANS LA MOCLDY    79  73  82 W5        29.99S
OKLAHOMA CITY  PTCLDY    72  68  87 S3        30.01R
ALBUQUERQUE NM CLOUDY    73  53  49 E9        30.24R
SALT LAKE CITY CLEAR     57  37  47 CALM      30.26R
LOS ANGELES CA CLOUDY    66  63  90 W5        29.91R
BOISE ID       CLEAR     58  37  45 SE3       30.21S
SEATTLE WA     CLEAR     63  53  70 N5        30.19S
$$

*** WEATHER ACROSS MANITOBA...SASKATCHEWAN AND ONTARIO ***
                ***ONTARIO***

CITY           SKY/WX    TMP DP  RH WIND       PRES   REMARKS
GERALDTON      MOCLDY    64  61  88 S10G18    29.60F
THUNDER BAY    PTCLDY    66  54  63 SW13      29.62S
SIOUX LOOKOUT  LGT RAIN  64  54  68 SW13G25   29.43F
TORONTO        CLOUDY    73  63  68 N2        29.97R
BIG TROUT LK   PTCLDY    66  63  88 S9        29.36F
PICKLE LAKE    MOCLDY    63  55  77 S13G20    29.41
DRYDEN         CLOUDY    63  54  72 SW18G31   29.42F
KENORA         LGT RAIN  61  59  94 SW23G35   29.38R FOG
$$
                *** MANITOBA***

CITY           SKY/WX    TMP DP  RH WIND       PRES   REMARKS
BRANDON        CLOUDY    61  57  88 NW24G35   29.60R
DAUPHIN        CLOUDY    63  55  77 NW17G29   29.52R
ISLAND LAKE    NOT AVBL
PILOT MOUND      N/A     59  55  88 W18G31      N/A
THE PAS        MOCLDY    63  55  77 NW22G32   29.51R
THOMPSON       LGT RAIN  59  57  94 N15G22    29.33R
WINNIPEG       DRIZZLE   61  61 100 W22G30    29.42R FOG
LYNN LAKE        N/A    N/A N/A N/A MISG        N/A
CHURCHILL      LGT RAIN  48  48 100 NE13      29.61R FOG
GILLAM         DRIZZLE   59  57  94 NE15G26   29.27F
$$
                ***SASKATCHEWAN***

CITY           SKY/WX    TMP DP  RH WIND       PRES   REMARKS
ESTEVAN        NOT AVBL
KINDERSLEY     PTCLDY    52  48  87 W9        30.00R
LLOYDMINSTER   CLEAR     55  46  71 W12       29.95R
PRINCE ALBERT  MOCLDY    54  52  94 W7        29.79R
REGINA         MOCLDY    55  52  88 NW13      29.87R



USA.gov is the U.S. government's official web portal to all federal, state and local government web resources and services.